Regional Weather Roundup
Issued by NWS

Home | Current Version | Previous Version | Graphics & Text | Print | Product List | Glossary On
Versions: 1 2 3 4 5 6 7 8 9 10 11 12 13 14 15 16 17 18 19 20 21 22 23 24 25 26 27 28 29 30 31 32 33 34 35 36 37 38 39 40 41 42 43 44 45 46 47 48 49 50
000
ASUS44 KMEG 220510
RWRTN
TENNESSEE HOURLY STATE WEATHER ROUNDUP
NATIONAL WEATHER SERVICE MEMPHIS TN
1200 AM CDT WED OCT 22 2014

TNZ002-004-019-021-049-052-054-088>092-220600-
WEST TENNESSEE

CITY           SKY/WX    TMP DP  RH WIND       PRES   REMARKS
MEMPHIS INTL   CLEAR     61  47  59 NE8       30.11S
NWS MEMPHIS      N/A     55 N/A N/A MISG        N/A
JACKSON        CLEAR     55  46  71 E9        30.12F
DYERSBURG      CLEAR     55  39  54 NE5       30.15S
UNION CITY     CLEAR     48  45  87 NE5       30.14S
PARIS          CLEAR     50  43  76 NE9       30.16R
LEXINGTON      CLEAR     52  45  76 NE3       30.12S
SAVANNAH       CLEAR     48  48 100 N3        30.11F
$$

TNZ008-025-027-028-033-062-065-066-220600-
NORTH MIDDLE TENNESSEE

CITY           SKY/WX    TMP DP  RH WIND       PRES   REMARKS
NASHVILLE      CLEAR     52  43  71 N5        30.15S
CLARKSVILLE    CLEAR     48  42  80 NE6       30.16R
SMYRNA         CLEAR     49  43  80 CALM      30.15S
COOKEVILLE     CLEAR     41  39  93 CALM      30.12R
CROSSVILLE     CLEAR     46  38  73 N6        30.12S
$$

TNZ061-075-076-078-094-096-097-220600-
SOUTH MIDDLE TENNESSEE

CITY           SKY/WX    TMP DP  RH WIND       PRES   REMARKS
FAYETTEVILLE   CLEAR     52  43  71 NE10      30.10F
TULLAHOMA      CLEAR     52  43  71 NE7       30.12S
WINCHESTER     CLEAR     45  43  93 CALM      30.11S
MCMINNVILLE    CLEAR     48  45  87 CALM      30.12S
COLUMBIA         N/A     48  48 100 CALM      30.11S
SHELBYVILLE    CLEAR     52  45  76 NE6       30.13S
$$

TNZ017-018-042-046-047-220600-
NORTHEAST TENNESSEE

CITY           SKY/WX    TMP DP  RH WIND       PRES   REMARKS
TRI CITIES     CLOUDY    47  40  76 CALM      30.08F
ELIZABETHTON   CLOUDY    45  39  81 NW3       30.08S
$$

TNZ012-013-036-069-073-074-220600-
CENTRAL EAST TENNESSEE

CITY           SKY/WX    TMP DP  RH WIND       PRES   REMARKS
KNOXVILLE      PTCLDY    48  40  73 N6        30.09F
OAK RIDGE      CLEAR     46  42  86 CALM      30.12F
GATLINBURG     CLOUDY    45  39  81 CALM      30.09F
MORRISTOWN     PTCLDY    45  39  81 CALM      30.10F
$$

TNZ083-085-099-220600-
SOUTHEAST TENNESSEE

CITY           SKY/WX    TMP DP  RH WIND       PRES   REMARKS
CHATTANOOGA    CLEAR     55  42  61 N9        30.09S
$$

SKY/WX REPORTED AS FAIR MEANS FEW OR NO CLOUDS BELOW
12 THOUSAND FEET.




USA.gov is the U.S. government's official web portal to all federal, state and local government web resources and services.